Location: Brusselsch Zeekanaal
(50.8667°N, 4.3667°E)
Time: 10:21:32
(UTC+00:00)

Cosmos 1484 Rocket - Pass Details

Date: 08 November 2025
Orbit: 442 x 473 km, 97.6° (Epoch: 12 December)

Event Time Altitude Azimuth Distance (km) Brightness Sun altitude
Rises 04:55:44 0° 21° (NNE) 2,552 6.4 -17.6°
Reaches altitude 10° 04:57:58 10° 32° (NNE) 1,667 5.6 -17.3°
Maximum altitude 05:01:13 32° 97° (E) 850 4.5 -16.7°
Drops below altitude 10° 05:04:26 10° 162° (SSE) 1,649 5.6 -16.2°
Sets 05:06:38 0° 172° (S) 2,519 6.4 -15.9°
